Location: Poughquag
(41.6090°N, 73.6820°W)
Time: 09:49:58
(UTC-05:00)

SR - Pass Details

Date: 07 December 2023
Orbit: 574 x 868 km, 66.7° (Epoch: 25 February)

Event Time Altitude Azimuth Distance (km) Brightness Sun altitude
Rises 18:37:12 0° 335° (NNW) 3,454 ? -24.1°
Enters shadow 18:42:58 26° 8° (N) 1,624 ? -25.1°
Maximum altitude 18:45:14 35° 49° (NE) 1,329 - -25.6°
Drops below altitude 10° 18:50:13 10° 115° (ESE) 2,363 - -26.5°
Sets 18:52:46 0° 124° (SE) 3,243 - -26.9°
